TimeCST,TemperatureF,Dew PointF,Humidity,Sea Level PressureIn,VisibilityMPH,Wind Direction,Wind SpeedMPH,Gust SpeedMPH,PrecipitationIn,Events,Conditions,WindDirDegrees,DateUTC
12:56 AM,55.9,52.0,87,30.16,10.0,Calm,Calm,-,0.00,Rain,Light Rain,0,2012-02-04 06:56:00
1:56 AM,57.0,53.1,87,30.17,10.0,Calm,Calm,-,0.00,,Clear,0,2012-02-04 07:56:00
2:00 AM,32.0,32.0,100,-9999,-9999.0,North,-9999.0,-,N/A,Hail,Hail,0,2012-02-04 08:00:00
2:56 AM,55.9,52.0,87,30.17,10.0,ESE,3.5,-,N/A,,Partly Cloudy,120,2012-02-04 08:56:00
3:56 AM,57.0,53.1,87,30.17,10.0,ESE,6.9,-,N/A,,Scattered Clouds,120,2012-02-04 09:56:00
4:56 AM,57.9,53.1,84,30.18,10.0,SE,5.8,-,N/A,,Clear,130,2012-02-04 10:56:00
5:56 AM,57.0,54.0,89,30.18,10.0,SE,4.6,-,N/A,,Clear,130,2012-02-04 11:56:00
6:56 AM,57.0,54.0,89,30.19,10.0,SE,4.6,-,0.00,,Clear,130,2012-02-04 12:56:00
7:56 AM,59.0,55.0,87,30.18,10.0,SE,6.9,-,N/A,,Clear,130,2012-02-04 13:56:00
8:56 AM,62.1,57.0,84,30.19,10.0,SSE,6.9,16.1,N/A,,Clear,150,2012-02-04 14:56:00
9:56 AM,64.0,57.0,78,30.18,10.0,SE,8.1,-,N/A,,Clear,140,2012-02-04 15:56:00
10:56 AM,66.9,59.0,76,30.15,10.0,South,9.2,-,N/A,,Clear,180,2012-02-04 16:56:00
11:56 AM,70.0,60.1,71,30.13,10.0,South,9.2,-,N/A,,Clear,190,2012-02-04 17:56:00
12:56 PM,72.0,60.1,66,30.09,10.0,SSW,9.2,-,N/A,,Partly Cloudy,210,2012-02-04 18:56:00
1:56 PM,75.0,61.0,62,30.07,10.0,South,11.5,-,N/A,,Mostly Cloudy,180,2012-02-04 19:56:00
2:56 PM,73.0,61.0,66,30.06,10.0,South,9.2,-,N/A,,Scattered Clouds,170,2012-02-04 20:56:00
3:56 PM,73.0,61.0,66,30.06,10.0,South,5.8,-,N/A,,Clear,190,2012-02-04 21:56:00
4:56 PM,71.1,62.1,73,30.06,10.0,South,4.6,-,N/A,,Clear,170,2012-02-04 22:56:00
5:56 PM,69.1,62.1,78,30.06,10.0,South,5.8,-,N/A,,Clear,180,2012-02-04 23:56:00
6:56 PM,66.9,62.1,84,30.07,10.0,South,5.8,-,N/A,,Clear,190,2012-02-05 00:56:00
7:56 PM,66.9,62.1,84,30.09,10.0,SW,5.8,-,N/A,,Mostly Cloudy,230,2012-02-05 01:56:00
8:13 PM,66.9,63.0,87,30.11,10.0,SW,4.6,-,N/A,,Mostly Cloudy,230,2012-02-05 02:13:00
8:34 PM,66.9,63.0,87,30.11,10.0,Calm,Calm,-,N/A,,Mostly Cloudy,0,2012-02-05 02:34:00
8:54 PM,66.0,63.0,90,30.10,10.0,SW,4.6,-,N/A,,Scattered Clouds,220,2012-02-05 02:54:00
8:56 PM,66.0,63.0,90,30.09,10.0,SW,4.6,-,N/A,,Scattered Clouds,220,2012-02-05 02:56:00
9:33 PM,66.0,63.0,90,30.09,10.0,NW,3.5,-,0.00,Rain,Light Rain,310,2012-02-05 03:33:00
9:40 PM,64.9,61.0,87,30.09,10.0,NW,5.8,-,0.00,Rain,Light Rain,320,2012-02-05 03:40:00
9:56 PM,64.9,60.1,84,30.08,10.0,Calm,Calm,-,0.00,,Overcast,0,2012-02-05 03:56:00
10:56 PM,64.0,60.1,87,30.06,10.0,Calm,Calm,-,0.00,,Mostly Cloudy,0,2012-02-05 04:56:00
11:07 PM,63.0,60.1,90,30.06,10.0,SSE,6.9,-,N/A,,Scattered Clouds,150,2012-02-05 05:07:00
11:42 PM,64.0,61.0,90,30.06,10.0,South,4.6,-,N/A,,Scattered Clouds,180,2012-02-05 05:42:00
11:56 PM,64.0,61.0,90,30.04,10.0,South,3.5,-,N/A,,Partly Cloudy,180,2012-02-05 05:56:00